Temperature
27 27 27 27 27 27 27 28 28 28 29 29 28 27 26 25 24 23 21 20 19 18 18 17 17 17 17 17 16 16 16 16 16 16 16 16 16 16 16 16 15 15 15 15
25 26 27 26 27 27 27 27 27 28 28 29 27 26 25 24 23 22 21 20 19 18 17 17 17 17 17 16 16 16 16 16 16 16 16 16 16 16 15 15 15 15 15 15
25 26 25 25 26 27 27 28 28 27 28 28 26 25 24 23 22 21 21 20 19 18 17 17 17 16 16 16 16 16 16 16 16 16 15 15 15 15 15 15 15 15 15 15
24 24 23 26 27 26 26 27 28 27 27 26 24 22 20 20 21 20 19 19 18 17 17 16 16 16 16 16 16 16 15 16 15 15 15 15 15 15 15 14 14 14 14 14
23 23 24 25 25 25 25 25 26 25 25 23 20 20 19 17 18 18 18 17 17 16 16 16 16 16 16 16 15 15 15 15 15 15 15 15 14 14 14 14 14 13 13 13
22 21 22 24 24 23 23 23 23 23 22 21 20 22 20 16 15 15 15 16 16 16 16 15 15 15 15 15 15 14 14 14 14 14 14 14 14 13 13 13 13 12 12 12
21 21 22 23 22 22 22 22 21 20 20 20 20 20 16 14 14 14 14 14 14 15 15 14 14 14 14 14 14 14 14 14 14 13 13 13 13 12 12 12 12 11 11 11
20 20 21 21 21 21 20 19 19 19 18 18 16 15 14 13 13 13 13 13 13 13 13 13 13 14 13 13 13 13 13 13 13 12 12 12 12 12 11 11 11 10 10 10
20 20 19 18 18 18 17 17 17 17 17 16 14 13 13 12 12 12 12 12 12 12 12 12 12 13 13 12 12 12 12 12 12 12 11 11 11 11 10 10 10 10 9 9
18 19 19 18 17 16 16 16 16 16 15 14 14 13 12 12 11 11 11 11 11 11 11 11 11 11 11 11 11 11 11 11 11 11 10 10 10 10 10 10 10 9 9 9
18 18 18 17 16 15 15 15 14 14 14 13 13 12 11 11 11 11 11 11 11 11 11 10 10 10 10 10 10 11 10 10 10 10 10 10 9 9 9 9 9 8 8 8
17 16 16 15 14 14 13 13 13 13 13 12 12 11 11 10 10 10 10 10 10 10 10 10 10 10 10 10 10 10 10 10 10 9 9 9 9 8 8 8 8 7 7 7
14 14 14 13 13 13 12 12 12 12 11 11 10 10 10 9 9 9 9 9 9 9 9 9 9 9 9 9 9 9 9 9 9 9 9 8 8 8 7 7 7 6 6 6
13 13 13 12 12 11 11 11 11 10 10 10 10 10 9 9 9 9 9 9 9 9 9 9 9 9 9 9 9 9 9 9 9 8 8 8 8 8 7 7 6 5 5 5
12 12 12 11 11 10 10 10 10 9 9 9 9 9 9 9 9 8 8 9 9 9 9 9 9 8 8 8 8 8 8 8 8 8 8 7 7 7 7 6 6 5 4 4
12 11 11 11 10 10 10 10 9 9 9 9 9 9 9 9 8 8 8 9 9 9 9 8 8 8 8 8 8 8 8 7 7 7 7 7 7 7 6 6 5 5 4 3
12 11 11 11 10 10 10 10 9 9 9 9 9 9 9 9 8 8 8 8 8 8 8 8 8 8 7 7 7 7 7 7 7 7 7 6 6 6 5 5 5 4 4 2
12 11 11 11 10 10 10 10 10 10 9 9 9 9 9 9 9 8 8 8 8 8 7 7 7 7 7 7 7 7 7 7 6 6 6 5 5 5 5 4 4 4 3 3
11 11 10 10 10 10 10 10 10 10 10 10 9 9 9 9 8 8 8 8 8 7 7 7 7 6 6 6 6 6 6 6 6 5 5 4 5 4 4 4 3 3 3 2
11 10 10 10 10 10 10 10 10 10 10 10 9 9 9 8 8 8 8 8 7 7 7 7 6 6 6 6 6 6 6 6 5 5 5 4 4 4 4 3 3 3 2 2
11 11 11 10 10 10 10 10 10 10 10 9 9 9 9 8 8 8 8 7 7 7 6 6 6 6 5 5 6 5 5 5 5 4 4 4 4 3 3 3 2 2 2 1
11 11 11 11 10 10 10 10 10 10 9 9 9 9 8 8 8 7 7 7 7 6 6 6 5 5 5 5 5 5 5 4 4 4 4 4 3 3 3 2 2 2 1 1
11 11 10 10 10 10 10 10 10 9 9 9 9 8 8 8 8 7 7 6 6 6 6 5 5 5 5 5 5 5 4 4 4 4 3 3 3 3 2 2 2 1 1 1
10 10 10 10 10 10 9 9 9 9 9 8 8 8 8 8 7 7 6 6 5 5 5 5 4 4 4 4 4 4 4 3 3 3 3 3 3 2 2 2 2 1 1 0
10 10 10 10 10 9 9 9 9 8 8 8 8 7 7 7 7 6 6 5 5 5 4 4 4 4 4 4 4 4 3 3 3 3 3 3 3 2 2 2 1 1 1 0
9 9 9 9 9 9 9 9 9 8 8 8 7 7 7 6 6 6 5 5 4 4 4 4 3 4 4 4 3 3 3 3 3 3 3 2 2 2 2 1 1 1 1 0
9 9 9 9 9 9 9 9 8 8 8 7 7 7 6 6 6 5 5 5 4 4 4 4 4 4 4 4 4 3 3 3 3 3 3 2 2 2 2 1 1 1 0 0
Wind_Speed
11 8 8 11 12 13 15 16 16 14 13 9 4 5 7 10 11 12 13 13 13 13 12 13 13 13 12 12 12 11 11 11 10 9 9 8 7 6 6 6 6 5 5 4
12 12 12 14 14 15 17 17 17 17 16 8 2 3 6 9 11 12 13 14 14 13 13 13 13 13 13 12 12 12 11 10 9 9 8 7 7 6 5 4 3 3 3 2
14 12 12 17 17 18 18 17 17 18 14 5 4 4 5 7 10 11 11 12 13 13 12 12 12 12 12 12 12 12 11 10 9 8 7 7 7 6 6 5 5 4 4 4
12 11 16 12 6 9 14 17 16 15 9 4 2 1 2 2 6 9 10 10 10 10 10 10 10 11 11 11 11 11 10 9 9 8 8 7 7 7 7 6 6 6 6 7
10 15 16 13 7 7 11 14 9 9 5 2 4 4 2 2 3 5 7 8 8 9 10 10 11 12 12 12 11 11 10 9 8 8 9 9 9 8 8 8 8 8 8 9
11 12 13 7 2 3 7 12 1 2 2 3 6 6 4 6 6 7 7 7 8 9 10 11 11 12 13 13 12 11 10 9 9 9 10 10 10 9 8 9 9 9 10 10
14 14 11 3 3 3 9 4 5 3 2 3 4 0 8 9 8 9 9 10 11 11 11 11 11 13 13 13 12 11 11 11 11 11 11 12 11 10 9 10 10 10 10 10
9 12 9 3 3 5 6 8 7 4 2 2 6 10 11 11 11 11 12 12 13 13 13 12 12 14 14 13 12 12 13 13 13 11 11 11 11 10 10 10 10 10 9 8
6 6 4 5 6 8 8 8 5 3 1 6 10 11 12 12 12 12 13 13 14 15 15 14 13 14 15 13 12 13 14 14 13 12 11 11 11 10 9 7 6 6 6 6
8 8 7 8 7 7 6 6 4 2 4 8 11 13 14 13 13 13 13 14 14 16 17 15 14 15 14 12 12 14 14 13 12 12 12 10 8 7 6 6 5 5 4 4
10 10 8 5 5 5 3 2 3 5 7 10 14 15 15 14 14 13 14 14 14 15 16 16 14 14 13 12 12 14 13 12 11 11 11 10 10 10 8 10 8 5 5 4
7 6 5 6 5 2 0 1 5 9 11 13 15 17 16 15 14 14 14 14 15 16 16 15 14 14 12 11 11 11 11 9 9 8 8 8 9 10 16 13 15 16 15 11
6 6 4 3 2 1 3 6 8 11 14 16 16 17 17 16 15 15 15 15 15 16 15 15 14 13 11 10 10 10 9 8 7 7 7 6 7 7 8 9 12 13 13 13
3 2 2 3 4 6 9 11 13 15 16 17 17 17 17 17 16 16 15 14 15 15 14 14 13 12 10 10 10 9 9 8 7 6 6 5 5 5 5 5 6 6 9 9
5 5 6 7 9 11 12 15 17 17 18 18 17 16 17 17 16 15 14 14 14 14 14 13 12 11 9 9 9 9 8 7 6 6 5 5 5 4 5 5 4 4 4 5
6 9 10 11 12 14 15 17 18 18 18 18 17 17 17 17 16 15 14 13 13 14 12 12 11 9 8 8 9 8 8 8 5 5 5 5 4 4 4 3 3 3 3 4
8 10 12 14 15 15 16 16 17 18 18 18 18 18 17 17 16 15 14 13 13 12 11 11 10 8 7 7 6 6 7 7 4 4 4 4 3 3 3 3 3 3 4 6
9 11 13 15 16 16 16 17 17 17 17 18 18 17 16 16 15 14 13 13 12 12 10 9 8 7 7 6 5 4 4 4 4 4 4 4 3 3 3 3 3 3 3 4
14 15 16 16 17 16 16 16 16 16 16 16 16 15 15 14 14 13 12 11 11 10 8 8 6 7 7 5 3 4 4 4 4 4 4 4 2 3 3 3 3 3 3 3
16 16 17 17 17 17 16 16 16 16 15 15 15 15 14 13 13 12 11 9 7 7 8 6 6 6 6 4 2 4 4 4 4 4 3 3 3 3 3 3 3 3 3 3
17 17 17 17 17 16 16 16 15 15 14 14 14 14 13 12 11 10 9 9 8 7 7 5 4 5 5 4 2 4 4 4 4 4 3 3 3 3 3 3 3 3 3 4
15 16 16 16 15 14 13 13 13 13 13 12 12 12 12 11 10 9 8 7 8 5 4 5 6 7 4 0 4 4 4 4 4 3 3 3 3 3 3 3 3 3 4 4
14 14 14 14 14 13 13 12 12 11 11 11 10 10 9 8 7 7 7 7 7 5 5 7 8 5 2 1 4 4 4 4 3 3 3 2 2 2 3 2 3 3 3 4
13 14 13 13 13 13 12 11 11 10 10 10 9 9 9 8 7 7 8 9 7 5 7 9 6 1 4 3 4 4 4 3 3 3 3 2 2 2 2 2 2 3 3 4
13 12 12 11 11 10 10 11 11 10 10 9 10 9 7 7 7 8 8 9 8 6 8 8 4 2 1 4 3 3 3 3 3 3 2 2 2 2 2 2 3 3 3 4
11 9 8 7 7 7 7 7 7 7 7 8 7 7 7 7 9 8 8 9 9 6 6 6 6 4 3 4 3 2 3 3 2 1 2 2 2 2 2 3 3 3 4 4
9 8 7 7 6 5 5 6 6 7 7 7 7 7 6 7 7 8 8 8 8 6 6 5 5 4 3 3 3 2 2 2 1 1 1 1 2 2 2 3 3 4 5 5
Wind_Direction
263 273 265 256 247 238 240 253 264 271 273 278 250 214 192 184 177 173 171 171 171 170 168 169 170 171 171 171 170 169 170 174 175 173 173 177 179 185 193 202 207 204 206 212
257 256 259 259 255 249 248 252 258 265 270 279 248 189 188 187 182 179 176 174 172 171 171 172 172 172 171 171 169 168 170 170 169 167 168 169 170 174 175 175 176 167 163 154
259 258 263 254 251 251 252 251 253 259 269 254 222 202 191 188 187 183 177 172 170 170 171 172 173 171 168 165 163 163 163 162 159 160 162 160 159 153 146 136 119 105 99 97
261 259 252 259 276 274 268 264 261 263 269 268 258 145 137 187 189 177 170 165 163 162 159 158 159 158 155 152 153 153 151 147 143 147 144 138 132 121 112 106 102 99 95 90
255 253 257 258 258 273 272 267 272 270 259 194 130 140 144 109 131 144 147 147 147 151 149 148 148 146 142 140 139 137 134 131 130 132 127 120 111 107 105 106 105 101 95 90
247 255 258 265 21 336 281 259 311 315 242 189 186 224 179 121 112 112 113 123 129 129 127 130 135 136 132 130 127 124 121 118 115 114 114 110 106 106 106 107 105 101 92 85
248 251 256 307 342 280 249 287 19 351 304 224 227 57 112 115 108 108 109 111 113 113 112 112 118 121 117 115 114 114 112 107 104 104 106 106 105 106 109 107 103 99 95 89
247 249 250 32 308 278 316 338 330 330 342 99 108 111 117 114 110 107 105 103 104 102 100 99 105 108 106 103 106 108 106 102 101 101 103 105 105 104 105 110 111 107 104 98
262 270 339 328 305 304 302 297 302 304 106 132 130 127 122 115 109 104 102 100 101 101 97 94 96 101 102 101 104 104 102 101 100 99 98 103 106 108 109 110 108 109 108 103
264 266 288 301 301 300 291 280 265 213 157 145 135 128 122 115 110 107 104 102 103 101 97 93 92 93 97 102 106 106 104 103 103 101 99 93 92 94 93 90 95 99 95 93
265 275 285 295 318 316 312 277 182 157 150 141 132 127 123 117 112 108 104 102 101 100 99 97 96 97 99 103 105 105 104 105 104 100 96 88 74 55 63 57 47 49 64 64
282 307 296 302 316 317 14 123 141 137 131 126 125 123 118 113 111 109 105 104 102 100 99 98 97 95 95 97 101 106 109 110 108 108 107 108 105 88 58 65 66 59 50 53
292 313 317 310 329 24 109 111 119 121 121 117 115 116 113 110 107 106 104 103 102 101 99 98 96 93 92 94 96 96 99 100 105 108 114 116 120 119 113 92 81 75 70 65
333 347 18 53 79 88 100 103 105 105 107 109 111 111 111 109 107 105 104 105 105 103 101 99 97 93 94 97 97 99 102 96 99 102 103 103 104 108 114 121 118 105 98 97
47 67 92 97 96 100 104 107 105 105 107 108 110 111 112 111 109 108 109 110 107 104 101 99 95 91 92 96 98 97 96 97 94 96 99 98 98 97 93 91 90 92 103 117
99 100 102 103 104 106 107 110 111 113 114 115 116 115 114 113 112 110 110 110 107 102 99 97 93 90 90 94 100 98 89 72 80 101 101 101 99 94 90 89 85 76 63 45
120 116 113 112 110 108 108 109 112 116 118 119 119 119 117 115 113 111 108 104 101 101 101 99 97 95 94 94 96 100 103 105 113 96 86 83 83 80 76 70 66 61 66 63
106 109 113 115 113 111 110 111 112 115 118 120 121 122 122 120 117 116 114 112 106 100 96 98 99 99 95 90 85 90 99 97 91 85 87 77 72 72 68 64 53 38 47 96
108 109 110 110 111 111 112 112 112 114 118 121 121 120 119 118 119 120 121 119 116 111 105 104 106 105 98 88 85 104 96 99 97 92 91 100 82 68 61 48 38 32 23 15
112 112 111 111 112 113 114 116 116 117 119 121 120 119 119 121 124 124 121 111 100 104 113 112 112 100 101 87 23 94 92 91 89 89 86 87 80 73 65 52 37 26 16 2
116 116 114 113 112 112 114 116 117 118 121 123 122 122 123 125 128 130 127 114 101 102 109 117 107 103 98 100 124 97 96 89 86 81 81 80 73 63 53 37 27 21 13 1
117 116 115 114 112 111 113 115 117 119 120 121 122 125 127 129 126 116 102 104 116 121 124 111 96 79 68 34 99 91 90 89 88 87 79 67 62 55 47 35 27 19 11 5
116 116 116 116 115 114 113 114 116 118 120 123 126 129 127 123 125 124 115 110 118 119 106 91 92 90 313 112 88 89 87 84 79 78 71 60 55 54 46 32 27 17 6 356
115 114 114 116 116 115 112 111 110 112 115 117 118 121 124 122 115 107 109 110 103 108 101 100 105 98 277 101 95 93 89 85 79 69 65 63 56 51 42 23 13 4 356 344
111 112 114 118 118 115 116 117 117 117 116 114 116 117 116 113 117 117 119 123 126 129 119 123 142 249 203 94 95 91 87 66 50 38 54 45 34 34 24 7 356 345 343 341
112 111 106 103 105 118 125 126 126 125 125 123 119 114 112 115 120 126 129 133 134 134 131 137 149 192 134 115 108 103 97 116 124 88 49 27 20 3 353 350 340 335 336 336
117 117 116 113 114 116 124 129 130 130 130 129 126 124 124 128 131 135 138 141 143 144 141 147 150 148 132 122 114 111 105 97 69 37 30 13 354 337 336 322 322 327 324 324
Height
1453 1451 1452 1453 1453 1454 1456 1454 1455 1449 1446 1443 1446 1451 1456 1460 1464 1468 1471 1475 1478 1481 1484 1487 1490 1494 1497 1501 1504 1507 1510 1514 1517 1520 1523 1525 1528 1530 1533 1535 1537 1538 1540 1541
1458 1453 1452 1454 1451 1451 1451 1450 1449 1448 1446 1442 1448 1453 1456 1459 1463 1466 1469 1473 1476 1479 1482 1485 1488 1492 1495 1499 1502 1505 1509 1512 1515 1518 1521 1523 1525 1528 1530 1532 1534 1536 1537 1538
1460 1452 1454 1458 1448 1447 1446 1443 1444 1446 1442 1443 1448 1453 1456 1459 1461 1464 1467 1471 1474 1477 1480 1483 1487 1490 1493 1497 1500 1504 1507 1510 1513 1516 1519 1521 1523 1525 1527 1529 1531 1532 1534 1535
1460 1461 1470 1448 1440 1442 1443 1440 1438 1439 1442 1446 1451 1456 1459 1460 1461 1464 1466 1469 1472 1475 1478 1481 1485 1488 1492 1495 1498 1502 1505 1508 1511 1514 1517 1519 1521 1523 1525 1527 1528 1530 1531 1532
1461 1461 1454 1444 1442 1445 1446 1442 1440 1441 1445 1450 1454 1457 1459 1461 1462 1464 1466 1468 1471 1474 1477 1480 1483 1486 1490 1493 1497 1501 1504 1506 1509 1512 1515 1517 1519 1521 1523 1525 1527 1528 1529 1530
1462 1466 1463 1446 1444 1448 1450 1448 1445 1447 1448 1451 1454 1452 1456 1462 1463 1464 1466 1468 1470 1473 1476 1479 1483 1486 1489 1493 1497 1500 1503 1506 1509 1511 1513 1516 1518 1520 1523 1524 1526 1528 1529 1530
1461 1461 1451 1446 1448 1450 1455 1450 1450 1450 1451 1452 1453 1454 1459 1462 1464 1465 1467 1469 1471 1474 1477 1480 1483 1487 1490 1493 1497 1500 1503 1506 1509 1512 1513 1516 1518 1521 1523 1524 1526 1528 1529 1530
1458 1460 1454 1450 1449 1451 1451 1453 1452 1452 1453 1454 1455 1458 1460 1463 1465 1467 1469 1471 1473 1475 1478 1481 1485 1488 1491 1494 1498 1501 1504 1507 1510 1512 1515 1517 1519 1522 1524 1526 1527 1528 1529 1530
1456 1455 1453 1453 1454 1454 1454 1453 1452 1453 1454 1455 1457 1460 1462 1465 1467 1470 1472 1474 1476 1478 1480 1484 1488 1491 1493 1497 1500 1503 1506 1509 1512 1514 1517 1519 1522 1524 1525 1527 1530 1531 1531 1532
1456 1451 1452 1453 1452 1452 1452 1452 1452 1453 1454 1456 1458 1461 1464 1467 1470 1473 1476 1478 1481 1483 1484 1488 1492 1494 1497 1500 1503 1506 1509 1512 1515 1517 1519 1521 1524 1526 1528 1529 1531 1531 1532 1533
1454 1452 1452 1451 1452 1452 1450 1450 1450 1451 1453 1456 1459 1462 1466 1469 1473 1476 1479 1482 1485 1487 1489 1492 1496 1499 1502 1505 1508 1510 1512 1516 1518 1520 1522 1523 1525 1526 1528 1529 1530 1531 1532 1532
1453 1452 1453 1452 1452 1451 1450 1449 1449 1450 1453 1457 1460 1464 1468 1472 1477 1480 1483 1486 1489 1492 1494 1497 1501 1504 1507 1509 1512 1513 1516 1519 1521 1523 1524 1526 1527 1528 1528 1529 1530 1530 1530 1530
1454 1452 1451 1451 1451 1450 1449 1449 1450 1452 1455 1458 1463 1468 1472 1476 1481 1485 1488 1491 1494 1497 1500 1503 1506 1509 1511 1513 1515 1517 1519 1521 1523 1525 1527 1528 1529 1530 1530 1530 1530 1529 1529 1529
1454 1452 1451 1451 1451 1451 1451 1451 1453 1455 1459 1462 1467 1472 1476 1480 1485 1490 1494 1497 1500 1502 1505 1508 1510 1513 1515 1517 1519 1520 1522 1524 1525 1527 1528 1529 1530 1531 1531 1531 1531 1530 1529 1528
1454 1453 1453 1453 1453 1453 1454 1455 1456 1460 1463 1467 1472 1477 1482 1486 1490 1495 1499 1502 1505 1507 1510 1513 1515 1517 1519 1520 1521 1523 1524 1526 1527 1528 1529 1530 1530 1531 1531 1531 1531 1531 1530 1528
1456 1456 1456 1456 1456 1458 1459 1460 1462 1466 1469 1474 1478 1483 1488 1492 1496 1500 1504 1507 1510 1512 1514 1516 1518 1520 1521 1523 1524 1524 1525 1526 1527 1529 1530 1530 1530 1531 1531 1531 1531 1531 1530 1529
1457 1458 1459 1460 1461 1463 1465 1467 1468 1472 1476 1480 1485 1489 1493 1497 1501 1505 1509 1511 1513 1515 1518 1520 1521 1523 1523 1525 1526 1527 1527 1527 1527 1529 1530 1530 1531 1531 1531 1531 1531 1530 1530 1528
1460 1461 1462 1464 1465 1468 1471 1474 1476 1479 1483 1487 1491 1495 1498 1502 1506 1509 1512 1515 1517 1519 1521 1522 1523 1524 1525 1526 1527 1528 1529 1529 1530 1530 1530 1530 1531 1531 1531 1530 1530 1530 1529 1528
1464 1465 1467 1469 1472 1474 1477 1480 1483 1486 1490 1493 1496 1500 1503 1506 1510 1513 1515 1518 1520 1521 1523 1524 1525 1526 1526 1526 1528 1528 1529 1530 1530 1530 1530 1530 1530 1531 1531 1530 1530 1530 1529 1528
1469 1471 1473 1476 1479 1481 1484 1487 1490 1492 1496 1498 1501 1504 1507 1510 1513 1516 1518 1520 1522 1523 1524 1525 1527 1527 1527 1527 1528 1529 1530 1530 1530 1530 1530 1531 1531 1531 1530 1530 1530 1529 1528 1527
1474 1477 1479 1482 1484 1487 1490 1493 1495 1498 1501 1503 1506 1508 1510 1513 1516 1518 1520 1522 1523 1524 1525 1526 1527 1528 1528 1528 1529 1530 1530 1530 1530 1531 1531 1531 1531 1531 1530 1530 1529 1528 1527 1526
1479 1482 1484 1487 1489 1492 1495 1498 1500 1502 1505 1507 1509 1511 1513 1516 1518 1520 1521 1523 1524 1525 1527 1528 1528 1528 1528 1529 1530 1531 1531 1531 1531 1531 1531 1531 1531 1531 1530 1529 1529 1528 1527 1525
1483 1486 1489 1491 1494 1496 1499 1502 1504 1506 1508 1510 1512 1514 1516 1518 1519 1521 1522 1524 1525 1526 1527 1528 1528 1528 1528 1530 1531 1531 1531 1531 1531 1532 1531 1531 1531 1530 1530 1529 1528 1527 1526 1524
1488 1491 1493 1496 1498 1500 1502 1505 1506 1508 1510 1512 1514 1515 1517 1519 1521 1522 1523 1523 1525 1527 1528 1527 1528 1528 1529 1532 1532 1532 1532 1532 1532 1532 1532 1531 1531 1530 1529 1529 1528 1526 1525 1523
1492 1494 1497 1499 1501 1503 1505 1507 1509 1510 1512 1514 1515 1517 1519 1520 1521 1522 1523 1524 1525 1527 1528 1528 1528 1529 1531 1532 1533 1533 1533 1533 1532 1532 1532 1531 1531 1530 1529 1528 1527 1526 1524 1522
1495 1498 1500 1502 1503 1505 1507 1509 1511 1512 1514 1515 1517 1518 1519 1521 1522 1523 1524 1525 1526 1527 1529 1529 1530 1531 1532 1533 1533 1533 1533 1532 1532 1532 1531 1531 1530 1529 1528 1527 1526 1524 1523 1521
1498 1500 1502 1504 1505 1507 1509 1510 1511 1513 1515 1516 1517 1519 1520 1521 1522 1524 1525 1526 1527 1529 1530 1531 1532 1533 1533 1533 1533 1533 1533 1533 1532 1532 1531 1530 1529 1528 1527 1526 1524 1523 1521 1519